     2.10           OBSERVATION DATA    G (GPS)             RINEX VERSION / TYPE
teqc 2002Apr3 20050330 16:36:15UTC                          PGM / RUN BY / DATE
OSX 5.3|G3|cc|OSX 5.3+|G3+                                  COMMENT
2 OBSERVATION DATA                                          COMMENT
XYZAshRx The XYZ's of GPS 03/30/2005 04:18                  COMMENT
This is the contents of comment line number 1               COMMENT
This is the contents of comment line number 2               COMMENT
SNOW                                                        MARKER NAME
Station Number XYZTT                                        MARKER NUMBER
___ The XYZ's of GPS, Inc.                                  OBSERVER / AGENCY
5555-1122A0 Ashtech UZ-12 CJ10 0A16                         REC # / TYPE / VERS
T001234578 Ball MciroStrip                                  ANT # / TYPE
   261717.8761 -4854909.2212  4114614.3758                  APPROX POSITION XYZ
        0.5000        0.0000        0.0000                  ANTENNA: DELTA H/E/N
     1     1                                                WAVELENGTH FACT L1/2
     5    L1    L2    C1    P1    P2                        # / TYPES OF OBSERV
    30.0000                                                 INTERVAL
  2005     3    30    15    39   30.0000000     GPS         TIME OF FIRST OBS
                                                            END OF HEADER
 05  3 30 15 39 30.0000000  0  7G24G 2G 4G 7G 5G10G30
  -6134417.77316  -4795362.37455  23658309.876    23658309.5825   23658312.2805
   4972606.64718   3881815.78057  20711745.386    20711745.0435   20711745.4605
   5972564.76618   4650458.39057  20482982.028    20482982.0665   20482983.9335
   -175181.28014   -157918.50353  22315109.924    22315108.5045   22315111.6735
  -1168981.80417   -904177.25756  21613853.655    21613852.9045   21613855.4745
  -8363207.22916  -6498946.30755  23577583.960    23577583.3965   23577588.1385
  -1042626.16915   -801986.97854  24054562.885    24054561.2605   24054565.2645
 05  3 30 15 40  0.0000000  0  6G24G 2G 4G 5G10G30
  -6045940.042 6  -4726418.73845  23675146.638    23675146.4564   23675149.2284
   4927337.519 8   3846541.14447  20703131.053    20703130.7444   20703131.0684
   6017139.073 8   4685191.61347  20491464.228    20491464.2824   20491466.2304
  -1208028.273 7   -934603.06746  21606423.277    21606422.6024   21606425.1474
  -8479837.030 5  -6589826.56545  23555389.649    23555389.2914   23555394.2554
  -1137780.533 5   -876133.18044  24036455.440    24036454.3454   24036457.5344
 05  3 30 15 40 30.0000000  0  6G24G 2G 4G 5G10G30
  -5957425.991 6  -4657446.77645  23691990.488    23691990.1954   23691992.8214
   4882440.846 8   3811556.75047  20694587.757    20694587.3244   20694587.5654
   6062030.820 8   4720172.17747  20500006.895    20500006.9164   20500008.9484
  -1246524.597 8   -964600.20946  21599097.829    21599097.1094   21599099.5794
  -8596337.438 5  -6680606.02245  23533220.007    23533219.6904   23533224.8924
  -1232644.795 5   -950053.37244  24018403.359    24018402.5784   24018405.0914
 05  3 30 15 41  0.0000000  0  6G24G 2G 4G 5G10G30
  -5868883.207 7  -4588452.40145  23708839.943    23708839.5004   23708841.9344
   4837910.324 8   3776857.64947  20686113.833    20686113.4394   20686113.6164
   6107231.514 8   4755393.48147  20508608.357    20508608.3804   20508610.4054
  -1284476.073 7   -994172.76946  21591875.900    21591875.2134   21591877.6694
  -8712712.230 6  -6771287.55645  23511074.634    23511074.0644   23511079.3944
  -1327222.710 5  -1023750.40044  24000405.945    24000405.0374   24000407.2904
 05  3 30 15 41 30.0000000  0  7G24G 2G 4G 7G 5G10G30
  -5780306.079 7  -4519431.28945  23725696.474    23725695.4314   23725697.7994
   4793753.039 8   3742449.38547  20677710.830    20677710.4444   20677710.6834
   6152746.634 8   4790859.80547  20517269.587    20517269.6394   20517271.6804
   -627006.39915   -504768.71154  22362338.221    22362337.5485   22362341.1515
  -1321874.139 7  -1023314.11546  21584759.369    21584758.6304   21584761.0314
  -8828951.518 5  -6861863.51445  23488955.107    23488954.4624   23488959.7774
  -1421504.680 5  -1097216.88644  23982463.727    23982463.7644   23982466.1324
 05  3 30 15 42  0.0000000  0  7G24G 2G 4G 7G 5G10G30
  -5691699.974 6  -4450387.66445  23742557.649    23742556.7134   23742559.4574
   4749964.776 8   3708328.66347  20669378.165    20669377.7814   20669378.0534
   6198570.147 8   4826566.43147  20525989.563    20525989.5944   20525991.6734
   -564341.240 5   -455938.69244  22374261.945    22374261.3674   22374265.3324
  -1358721.538 7  -1052026.36946  21577747.374    21577746.6964   21577749.1914
  -8945056.597 5  -6952334.88245  23466860.642    23466860.1834   23466865.7184
  -1515492.263 5  -1170453.89344  23964579.515    23964578.8024   23964581.1544
 05  3 30 15 42 30.0000000  0  7G24G 2G 4G 7G 5G10G30
  -5603060.303 6  -4381317.81845  23759425.208    23759424.3624   23759427.4114
   4706552.192 8   3674500.68047  20661117.022    20661116.6774   20661117.0094
   6244706.556 8   4862516.87647  20534769.043    20534769.0974   20534771.0094
   -501423.224 5   -406911.74743  22386234.493    22386234.2124   22386238.2454
  -1395010.602 7  -1080303.56046  21570841.453    21570840.9344   21570843.6304
  -9061018.371 5  -7042694.63945  23444793.475    23444793.1464   23444798.8614
  -1609176.373 5  -1243454.46944  23946751.789    23946751.2164   23946753.8834
 05  3 30 15 43  0.0000000  0  7G24G 2G 4G 7G 5G10G30
  -5514388.892 6  -4312223.24045  23776298.878    23776298.0644   23776300.9594
   4663514.276 8   3640964.65547  20652927.207    20652926.8324   20652927.2774
   6291153.376 8   4898709.19747  20543607.684    20543607.7004   20543609.4584
   -438253.465 5   -357688.56743  22398255.378    22398255.1874   22398258.9444
  -1430740.938 7  -1108145.39046  21564042.166    21564041.6434   21564044.3544
  -9176835.119 5  -7132941.38045  23422754.243    23422753.8924   23422759.6294
  -1702555.141 5  -1316217.18844  23928981.010    23928981.3884   23928984.6684
 05  3 30 15 43 30.0000000  0  7G24G 2G 4G 7G 5G10G30
  -5425701.733 6  -4243116.39645  23793175.308    23793174.7144   23793177.5914
   4620836.441 8   3607709.20647  20644805.828    20644805.4554   20644805.9834
   6337894.048 8   4935130.50147  20552502.134    20552502.1914   20552503.9234
   -374846.986 5   -308280.88743  22410321.884    22410321.4134   22410324.6034
  -1465926.238 7  -1135562.49246  21557346.618    21557346.1584   21557348.8164
  -9292518.403 6  -7223084.11445  23400740.742    23400740.2274   23400745.8404
  -1795640.967 5  -1388751.55644  23911268.461    23911267.6324   23911271.1224
 05  3 30 15 44  0.0000000  0  7G24G 2G 4G 7G 5G10G30
  -5336984.255 6  -4173985.98445  23810057.898    23810057.1494   23810060.3204
   4578534.593 8   3574746.73247  20636755.973    20636755.6584   20636756.1584
   6384942.480 8   4971791.61647  20561455.204    20561455.2574   20561457.0214
   -311188.239 5   -258676.70043  22422436.438    22422435.5254   22422438.6714
  -1500549.204 7  -1162541.42346  21550758.210    21550757.7334   21550760.2704
  -9408049.702 6  -7313108.41145  23378756.124    23378755.4364   23378760.9184
  -1888415.154 5  -1461043.09944  23893612.662    23893613.1444   23893617.0114
 05  3 30 15 44 30.0000000  0  7G24G 2G 4G 7G 5G10G30
  -5248241.140 5  -4104835.51944  23826944.524    23826944.1184   23826947.6904
   4536605.144 8   3542074.45247  20628776.989    20628776.7664   20628777.2104
   6432293.800 8   5008688.73847  20570465.835    20570465.8744   20570467.7784
   -247280.604 5   -208878.61143  22434597.760    22434596.7255   22434600.1244
  -1534611.978 7  -1189083.83746  21544276.494    21544275.9754   21544278.4304
  -9523429.395 5  -7403014.53945  23356799.990    23356799.3394   23356804.6574
  -1980878.684 6  -1533092.57644  23876017.470    23876018.1504   23876021.8284
 05  3 30 15 45  0.0000000  0  7G24G 2G 4G 7G 5G10G30
  -5159483.331 5  -4035673.66444  23843834.838    23843833.7404   23843837.6284
   4495038.391 8   3509684.78747  20620867.238    20620866.9684   20620867.3474
   6479936.088 8   5045812.58947  20579531.901    20579531.9404   20579533.9144
   -183134.239 5   -158894.47942  22446805.297    22446803.6085   22446806.5824
  -1568123.259 7  -1215196.52546  21537899.591    21537899.0264   21537901.6124
  -9638664.420 5  -7492807.93645  23334871.312    23334870.6764   23334876.0134
  -2073038.357 6  -1604905.25944  23858481.927    23858481.3034   23858484.3434
 05  3 30 15 45 30.0000000  0  7G24G 2G 4G 7G 5G10G30
  -5070693.748 5  -3966487.01344  23860730.060    23860729.3554   23860733.9144
   4453853.070 8   3477592.33747  20613030.043    20613029.7604   20613030.0514
   6527886.143 8   5083176.26447  20588656.607    20588656.5754   20588658.5214
   -118730.765 5   -108709.93542  22459061.015    22459059.2915   22459062.1534
  -1601063.180 8  -1240863.99846  21531631.442    21531630.7404   21531633.5234
  -9753733.776 5  -7582472.27145  23312973.833    23312973.4334   23312979.1514
  -2164873.161 6  -1676464.83245  23841006.886    23841006.4774   23841008.8114
 05  3 30 15 46  0.0000000  0  7G24G 2G 4G 7G 5G10G30
  -4981887.123 5  -3897287.10345  23877629.287    23877628.5134   23877633.5034
   4413035.157 8   3445786.17647  20605262.734    20605262.4034   20605262.6294
   6576128.576 8   5120767.75647  20597836.808    20597836.7964   20597838.8454
    -54084.213 4    -58336.05443  22471362.957    22471361.2865   22471363.5094
  -1633444.134 7  -1266095.91046  21525469.444    21525468.8704   21525471.6864
  -9868648.234 5  -7672015.95745  23291105.920    23291105.5854   23291111.8394
  -2256394.317 5  -1747780.00144  23823591.208    23823590.9434   23823592.6014
 05  3 30 15 46 30.0000000  0  7G24G 2G 4G 7G 5G10G30
  -4893061.520 5  -3828072.39244  23894532.431    23894531.3554   23894536.5744
   4372588.259 8   3414269.12147  20597566.006    20597565.6074   20597565.8094
   6624665.115 8   5158588.42947  20607073.000    20607073.0514   20607075.0504
     10808.746 5     -7770.15443  22483711.275    22483710.1275   22483712.3324
  -1665261.538 8  -1290888.69246  21519414.784    21519414.2544   21519417.0084
  -9983401.361 5  -7761433.91245  23269269.105    23269268.5874   23269275.1344
  -2347595.714 5  -1818845.97444  23806235.993    23806235.5524   23806237.4784
 05  3 30 15 47  0.0000000  0  7G24G 2G 4G 7G 5G10G30
  -4804211.685 5  -3758838.72644  23911439.172    23911438.9164   23911444.2294
   4332518.916 8   3383046.26547  20589940.938    20589940.5774   20589940.8244
   6673500.383 8   5196641.87147  20616366.038    20616366.0274   20616368.1084
     75954.307 4     42992.54143  22496108.154    22496106.8055   22496109.4284
  -1696507.902 8  -1315236.50546  21513468.838    21513468.3374   21513470.9664
 -10097983.929 6  -7850718.95845  23247464.964    23247464.4844   23247470.5924
  -2438468.115 6  -1889655.57945  23788942.947    23788942.7824   23788945.3424
 05  3 30 15 47 30.0000000  0  6G24G 2G 4G 5G10G30
  -4715352.885 5  -3689598.16444  23928349.271    23928348.0324   23928353.3594
   4292812.733 8   3352106.38747  20582384.995    20582384.6784   20582384.9534
   6722618.199 8   5234915.48247  20625712.789    20625712.8414   20625714.8764
  -1727196.612 7  -1339149.78346  21507628.988    21507628.5124   21507631.0244
 -10212407.325 6  -7939879.92145  23225691.206    23225690.6794   23225696.2084
  -2529023.435 6  -1960218.14445  23771710.866    23771710.5454   23771713.4534
 05  3 30 15 48  0.0000000  0  6G24G 2G 4G 5G10G30
  -4626471.161 5  -3620339.72444  23945262.172    23945261.6184   23945266.9954
   4253485.009 8   3321461.40947  20574901.207    20574900.8914   20574901.1174
   6772032.377 8   5273420.03447  20635116.083    20635116.1124   20635118.0634
  -1757311.132 8  -1362615.64646  21501898.568    21501897.9424   21501900.4274
 -10326653.460 6  -8028902.77345  23203950.982    23203950.4734   23203955.5564
  -2619243.637 5  -2030519.58645  23754542.180    23754542.3414   23754545.0934
 05  3 30 15 48 30.0000000  0  6G24G 2G 4G 5G10G30
  -4537581.171 5  -3551074.89443  23962177.486    23962176.8974   23962182.1884
   4214522.024 8   3291100.64647  20567486.997    20567486.5814   20567486.7274
   6821727.283 8   5312143.33846  20644572.642    20644572.7584   20644574.6654
  -1786863.923 7  -1385643.78245  21496274.887    21496274.2744   21496276.7054
 -10440733.162 5  -8117795.97445  23182242.599    23182241.8014   23182246.5744
  -2709139.649 5  -2100568.39444  23737435.800    23737435.7434   23737438.4014
 05  3 30 15 49  0.0000000  0  6G24G 2G 4G 5G10G30
  -4448673.505 5  -3481796.29044  23979096.474    23979095.6715   23979100.8734
   4175934.445 8   3261032.41047  20560144.189    20560143.7144   20560143.8174
   6871712.170 8   5351092.58347  20654084.479    20654084.5684   20654086.5034
  -1815843.214 8  -1408225.05646  21490760.373    21490759.6684   21490762.1744
 -10554632.941 6  -8206548.95645  23160568.051    23160567.2864   23160572.0894
  -2798697.998 6  -2170354.11345  23720393.269    23720393.3994   23720396.0254
 05  3 30 15 49 30.0000000  0  6G24G 2G 4G 5G10G30
   1941934.70115   1497898.40053  23996017.130    23996019.4715   23996023.2875
   4137726.302 8   3231259.82947  20552873.480    20552873.0234   20552873.0474
   6921988.976 8   5390269.30847  20663651.820    20663651.9414   20663653.8984
  -1844244.126 7  -1430355.64046  21485355.732    21485355.1134   21485357.7924
 -10668346.089 5  -8295156.55345  23138928.991    23138928.3974   23138933.3154
  -2887912.317 6  -2239871.73245  23703416.288    23703416.6244   23703418.9204
 05  3 30 15 50  0.0000000  0  6G24G 2G 4G 5G10G30
   2030848.606 5                  24012942.569
   4099863.651 8   3201756.47747  20545668.424    20545668.0544   20545667.9864
   6972522.387 8   5429645.98447  20673268.031    20673268.1834   20673270.0994
  -1872099.276 8  -1452060.96846  21480055.009    21480054.5154   21480057.1964
 -10781903.505 6  -8383642.76445  23117319.858    23117319.0924   23117324.2164
  -2976813.811 6  -2309145.59245  23686499.479    23686499.3734   23686501.2614
 05  3 30 15 50 30.0000000  0  6G24G 2G 4G 5G10G30
   2119795.868 5   1636491.47554  24029867.300    24029865.9195   24029861.9585
   4062395.625 8   3172560.62447  20538538.479    20538538.1134   20538538.0244
   7023359.499 9   5469259.30347  20682942.109    20682942.1994   20682944.0784
  -1899358.504 8  -1473301.91346  21474867.768    21474867.3724   21474869.9314
 -10895253.156 6  -8471967.14045  23095750.238    23095749.4514   23095754.6484
  -3065350.773 6  -2378135.36345  23669651.345    23669651.5074   23669653.2104
 05  3 30 15 51  0.0000000  0  6G24G 2G 4G 5G10G30
   2208744.092 5   1705801.73144  24046793.101    24046792.2704   24046791.7624
   4025291.102 8   3143648.01347  20531477.468    20531477.1844   20531477.3224
   7074467.534 8   5509083.73747  20692667.698    20692667.7784   20692669.5374
  -1926052.121 8  -1494102.13446  21469788.370    21469787.8034   21469790.2664
 -11008423.444 6  -8560151.72245  23074214.746    23074213.8964   23074218.9294
  -3153551.671 6  -2446863.34345  23652867.635    23652867.4534   23652868.9864
 05  3 30 15 51 30.0000000  0  6G24G 2G 4G 5G10G30
   2297705.663 5   1775122.42044  24063721.459    24063721.1034   24063721.8374
   3988563.208 8   3115028.87147  20524488.209    20524487.9454   20524488.3114
   7125858.331 8   5549128.51047  20702447.066    20702447.1194   20702448.9204
  -1952165.961 8  -1514450.57846  21464819.072    21464818.5114   21464820.9534
 -11121398.037 5  -8648183.80345  23052716.018    23052715.2804   23052720.3014
  -3241400.343 6  -2515316.81745  23636150.310    23636150.2214   23636151.8484
 05  3 30 15 52  0.0000000  0  6G24G 2G 4G 5G10G30
   2386676.988 5   1844450.71244  24080651.795    24080651.6634   24080653.2134
   3952209.016 8   3086700.93947  20517570.233    20517569.9754   20517570.3184
   7177527.134 8   5589389.88947  20712279.273    20712279.3264   20712281.3094
  -1977701.789 7  -1534348.62946  21459959.784    21459959.2144   21459961.6754
 -11234177.059 6  -8736063.49645  23031254.884    23031254.0784   23031258.8244
  -3328897.018 6  -2583495.99644  23619499.901    23619499.8524   23619501.6924
 05  3 30 15 52 30.0000000  0  6G24G 2G 4G 5G10G30
   2475650.487 5   1913780.62744  24097583.169    24097582.5704   24097584.7204
   3916222.337 8   3058659.38047  20510722.236    20510721.9734   20510722.2074
   7229465.984 8   5629861.71347  20722162.930    20722162.9784   20722165.0254
  -2002664.924 8  -1553800.42746  21455209.419    21455208.8314   21455211.4354
 -11346763.845 6  -8823793.40245  23009830.386    23009829.5724   23009833.9824
  -3416045.612 5  -2651403.93644  23602915.915    23602915.5944   23602917.6364
 05  3 30 15 53  0.0000000  0  6G24G 2G 4G 5G10G30
   2564628.473 5   1983113.99944  24114515.959    24114514.6744   24114517.1464
   3880606.626 8   3030906.88347  20503944.931    20503944.5654   20503944.7464
   7281676.842 8   5670545.49147  20732098.364    20732098.3924   20732100.5114
  -2027050.671 7  -1572802.30646  21450569.014    21450568.3374   21450571.0914
 -11459151.730 6  -8911368.34045  22988443.673    22988442.9914   22988447.1094
  -3502839.764 6  -2719035.77945  23586399.344    23586399.2904   23586401.0664
 05  3 30 15 53 30.0000000  0  6G24G 2G 4G 5G10G30
   2653616.209 6   2052455.04945  24131449.226    24131448.5924   24131451.3254
   3845367.953 8   3003448.18147  20497239.409    20497238.9414   20497239.1064
   7334164.131 8   5711444.67147  20742086.411    20742086.4184   20742088.5244
  -2050852.037 7  -1591348.82346  21446039.671    21446038.9944   21446041.8374
 -11571331.788 6  -8998781.33345  22967096.317    22967095.8154   22967100.0474
  -3589270.498 5  -2786384.36345  23569951.860    23569952.0344   23569953.9224
 05  3 30 15 54  0.0000000  0  6G24G 2G 4G 5G10G30
   2742599.870 6   2121792.89345  24148383.233    24148381.8194   24148384.6784
   3810493.324 8   2976273.14447  20490602.982    20490602.5604   20490602.7164
   7386913.382 8   5752547.95647  20752124.213    20752124.2134   20752126.3304
  -2074081.125 7  -1609449.42546  21441619.216    21441618.6084   21441621.4364
 -11683314.359 6  -9086040.38945  22945786.767    22945786.0724   22945790.7044
  -3675348.295 6  -2853457.98445  23553571.472    23553571.7994   23553573.9324
 05  3 30 15 54 30.0000000  0  6G24G 2G 4G 5G10G30
   2831595.275 4   2191139.95244  24165317.588    24165317.1094   24165320.2754
   3775999.924 8   2949395.17647  20484039.049    20484038.6744   20484038.7934
   7439940.009 8   5793867.39647  20762214.834    20762214.8484   20762216.9204
  -2096719.769 7  -1627089.92846  21437311.144    21437310.5704   21437313.3724
 -11795079.161 6  -9173129.81845  22924518.269    22924517.8464   22924522.8854
  -3761053.336 6  -2920241.07045  23537262.074    23537262.0264   23537264.7834
 05  3 30 15 55  0.0000000  0  6G24G 2G 4G 5G10G30
   2920588.95013   2260485.60654  24182251.419    24182251.2395   24182255.7915
   3741874.961 8   2922804.29747  20477545.375    20477544.9514   20477544.9624
   7493229.350 8   5835391.53547  20772355.410    20772355.4364   20772357.4554
  -2118780.071 8  -1644279.77646  21433113.259    21433112.6064   21433115.3984
 -11906636.063 5  -9260057.24545  22903289.432    22903288.9694   22903294.2984
  -3846395.684 6  -2986741.63945  23521021.939    23521022.1384   23521024.3974
